BMCB-24 Weather Reports


time (UTC)temp
F
wind
direction
speed
knots
gust
knots
rain 1hr
in
rain 24hr
in
rain mn
in
humidity
%
barometer
mb
20260506203109 47 0 0.0 0.0 0.00 0.05 0.02 89 1012.2
20260506202111 47 0 0.0 0.0 0.00 0.06 0.02 89 1012.2
20260506201111 47 0 0.0 0.0 0.00 0.08 0.02 89 1012.1
20260506200111 47 0 0.0 0.0 0.00 0.09 0.02 89 1011.9
20260506195108 47 0 0.0 0.0 0.00 0.13 0.02 88 1011.8
20260506194110 47 0 0.0 0.0 0.00 0.16 0.02 88 1011.7
20260506193111 48 0 0.0 0.0 0.00 0.19 0.02 87 1011.5
20260506192110 48 0 0.0 0.0 0.00 0.21 0.02 86 1011.4
20260506191106 48 0 0.0 0.0 0.00 0.24 0.02 86 1011.2
20260506190110 48 0 0.0 0.0 0.00 0.24 0.02 86 1011.1
20260506185109 48 0 0.0 0.0 0.00 0.25 0.02 85 1011.0
20260506184101 49 0 0.0 0.0 0.00 0.25 0.02 85 1010.9
20260506183108 49 0 0.0 0.0 0.00 0.27 0.02 84 1010.8
20260506182110 49 0 0.0 0.0 0.00 0.28 0.02 85 1010.6
20260506181101 49 0 0.0 0.0 0.00 0.29 0.02 85 1010.4
20260506180107 49 0 0.0 0.0 0.00 0.30 0.02 85 1010.2
20260506175106 49 0 0.0 0.0 0.00 0.31 0.02 84 1010.2
20260506173102 49 0 0.0 0.0 0.00 0.31 0.02 85 1010.2
20260506171104 50 0 0.0 0.0 0.00 0.31 0.02 84 1010.0
20260506170059 50 0 0.0 0.0 0.00 0.31 0.02 83 1009.9
20260506164103 51 0 0.0 0.0 0.00 0.31 0.02 84 1009.8
20260506163100 51 0 0.0 0.0 0.00 0.31 0.02 83 1009.8
20260506162106 51 0 0.0 0.0 0.00 0.31 0.02 83 1009.8
20260506161101 51 0 0.0 0.0 0.00 0.32 0.02 83 1009.7
20260506160100 51 0 0.0 0.0 0.00 0.33 0.02 83 1009.7
20260506155102 51 0 0.0 0.0 0.00 0.33 0.02 83 1009.6
20260506154107 51 0 0.0 0.0 0.00 0.34 0.02 85 1009.6
20260506153101 51 0 0.0 0.0 0.00 0.34 0.02 86 1009.5
20260506151104 51 0 0.0 0.0 0.00 0.35 0.02 86 1009.4
20260506150100 52 0 0.0 0.0 0.00 0.35 0.02 83 1009.2
20260506145103 52 0 0.0 0.0 0.00 0.35 0.02 85 1009.2
20260506144059 51 0 0.0 0.0 0.00 0.36 0.02 87 1009.2
20260506143058 51 0 0.0 0.0 0.00 0.36 0.02 87 1009.3
20260506142058 51 0 0.0 0.0 0.00 0.36 0.02 89 1009.4
20260506140106 52 0 0.0 0.0 0.00 0.37 0.02 87 1009.3
20260506135100 51 0 0.0 0.0 0.00 0.38 0.02 88 1009.3
20260506134059 50 0 0.0 0.0 0.00 0.38 0.02 89 1009.4
20260506132059 50 0 0.0 0.0 0.00 0.39 0.02 91 1009.4
20260506131059 50 0 0.0 0.0 0.00 0.39 0.02 90 1009.3
20260506130059 50 0 0.0 0.0 0.00 0.40 0.02 91 1009.2
20260506124058 50 0 0.0 0.0 0.00 0.43 0.02 90 1009.0
20260506123102 50 0 0.0 0.0 0.00 0.45 0.02 89 1008.9
20260506122058 50 0 0.0 0.0 0.00 0.46 0.02 89 1008.8
20260506121055 50 0 0.0 0.0 0.00 0.47 0.02 90 1008.8
20260506120056 50 0 0.0 0.0 0.00 0.52 0.02 90 1008.7
20260506115057 50 0 0.0 0.0 0.00 0.57 0.02 90 1008.6
20260506114059 50 0 0.0 0.0 0.00 0.62 0.02 91 1008.6
20260506113100 51 0 0.0 0.0 0.00 0.62 0.02 91 1008.4
20260506111059 51 0 0.0 0.0 0.00 0.62 0.02 89 1008.3
20260506105056 51 0 0.0 0.0 0.00 0.62 0.02 91 1008.3
20260506104058 50 0 0.0 0.0 0.00 0.62 0.02 91 1008.2
20260506103059 51 0 0.0 0.0 0.00 0.62 0.02 91 1008.1
20260506102100 51 0 0.0 0.0 0.00 0.62 0.02 91 1008.0
20260506100057 51 0 0.0 0.0 0.00 0.62 0.02 91 1007.8
20260506094058 51 0 0.0 0.0 0.00 0.62 0.02 93 1007.6
20260506091055 51 0 0.0 0.0 0.00 0.62 0.02 95 1007.6
20260506090059 51 0 0.0 0.0 0.00 0.62 0.02 96 1007.5
20260506085058 51 0 0.0 0.0 0.00 0.62 0.02 96 1007.3
20260506083056 50 0 0.0 0.0 0.01 0.62 0.02 97 1007.1
20260506082055 50 0 0.0 0.0 0.01 0.62 0.02 98 1007.1
20260506081055 50 0 0.0 0.0 0.01 0.62 0.02 99 1007.2
20260506073056 49 0 0.0 0.0 0.00 0.61 0.02 99 1007.2
20260506072053 49 0 0.0 0.0 0.01 0.61 0.02 98 1007.1
20260506071054 49 0 0.0 0.0 0.01 0.61 0.02 98 1007.1
20260506062055 49 0 0.0 0.0 0.01 0.61 0.02 99 1006.7
20260506061054 49 0 0.0 0.0 0.00 0.61 0.01 99 1006.7
20260506051055 49 0 0.0 0.0 0.00 0.61 0.01 98 1006.3
20260506045051 49 0 0.0 0.0 0.00 0.61 0.01 99 1006.2
20260506044053 49 0 0.0 0.0 0.00 0.61 0.01 99 1006.3
20260506043054 50 0 0.0 0.0 0.00 0.61 0.01 99 1006.3
20260506041052 49 0 0.0 0.0 0.00 0.61 0.01 99 1006.4
20260506040054 49 0 0.0 0.0 0.00 0.61 0.01 99 1006.5
20260506035058 50 0 0.0 0.0 0.00 0.61 0.01 99 1006.6
20260506034057 50 0 0.0 0.0 0.00 0.61 0.01 99 1006.7
20260506033052 50 0 0.0 0.0 0.00 0.61 0.01 99 1006.6
20260506032052 50 0 0.0 0.0 0.00 0.61 0.01 99 1006.6
20260506031055 50 0 0.0 0.0 0.00 0.61 0.01 99 1006.6
20260506030053 50 0 0.0 0.0 0.00 0.61 0.01 98 1006.7
20260506025055 50 0 0.0 0.0 0.00 0.61 0.01 99 1006.7
20260506024055 51 0 0.0 0.0 0.00 0.61 0.01 99 1006.6
20260506023055 51 0 0.0 0.0 0.00 0.61 0.01 99 1006.5
20260506022056 51 0 0.0 0.0 0.00 0.61 0.01 99 1006.6
20260506021054 51 0 0.0 0.0 0.00 0.61 0.01 99 1006.6
20260506020053 51 0 0.0 0.0 0.00 0.61 0.01 99 1006.5
20260506015054 51 0 0.0 0.0 0.00 0.61 0.01 99 1006.6
20260506014054 51 0 0.0 0.0 0.01 0.61 0.01 99 1006.6
20260506013052 51 0 0.0 0.0 0.01 0.61 0.01 98 1006.7
20260506012055 51 0 0.0 0.0 0.01 0.61 0.01 98 1006.7
20260506011055 51 0 0.0 0.0 0.01 0.61 0.01 98 1006.8
20260506010050 52 0 0.0 0.0 0.01 0.61 0.01 98 1006.8
20260506005053 52 0 0.0 0.0 0.01 0.61 0.01 99 1006.8
20260506004055 52 0 0.0 0.0 0.01 0.61 0.01 99 1006.9
20260506003052 52 0 0.0 0.0 0.00 0.60 0.00 99 1006.9
20260506002055 52 0 0.0 0.0 0.00 0.60 0.00 99 1007.0
20260506001053 52 0 0.0 0.0 0.00 0.60 0.00 99 1007.1
20260506000101 52 0 0.0 0.0 0.00 0.60 0.00 99 1007.1
20260505235101 52 0 0.0 0.0 0.00 0.60 0.00 99 1007.2
20260505234102 52 0 0.0 0.0 0.00 0.60 0.00 10 1007.2
20260505233103 53 0 0.0 0.0 0.00 0.60 0.00 10 1007.3
20260505232103 53 0 0.0 0.0 0.00 0.60 0.00 10 1007.3
20260505231104 53 0 0.0 0.0 0.00 0.60 0.00 10 1007.3
20260505230107 52 0 0.0 0.0 0.00 0.60 0.00 10 1007.4
20260505225103 52 0 0.0 0.0 0.00 0.60 0.00 10 1007.5
20260505223104 52 0 0.0 0.0 0.00 0.60 0.00 10 1007.6
20260505222107 52 0 0.0 0.0 0.00 0.60 0.00 10 1007.6
20260505221108 52 0 0.0 0.0 0.00 0.60 0.00 10 1007.6
20260505215111 52 0 0.0 0.0 0.01 0.60 0.60 10 1007.8
20260505214114 52 0 0.0 0.0 0.02 0.60 0.60 10 1007.9
20260505213111 52 0 0.0 0.0 0.02 0.60 0.60 10 1007.9
20260505212112 52 0 0.0 0.0 0.04 0.60 0.60 10 1007.9
20260505211107 52 0 0.0 0.0 0.06 0.60 0.60 10 1008.0
20260505210109 52 0 0.0 0.0 0.07 0.60 0.60 10 1008.1
20260505205108 52 0 0.0 0.0 0.10 0.60 0.60 10 1008.2
20260505204109 52 0 0.0 0.0 0.13 0.59 0.59 10 1008.2